Location: Unspecified
(46.7288°N, 0.0000°E)
Time: 18:51:57
(UTC+00:00)

Cosmos 990 Rocket - Visible Passes

Search period start: 04 April 2026 00:00
Search period end: 14 April 2026 00:00
Orbit: 743 x 763 km, 74.0° (Epoch: 29 March)

Date Brightness Start Highest point End Pass type
(mag) Time Alt. Az. Time Alt. Az. Time Alt. Az.
4 Apr 6.8 04:26:30 10° N 04:30:05 19° NE 04:33:40 10° E visible
4 Apr 5.0 19:04:02 10° SSE 19:08:08 24° E 19:12:13 10° NE visible
4 Apr 4.9 20:44:33 10° SW 20:49:32 48° WNW 20:54:33 10° NNE visible
5 Apr 7.2 03:46:06 10° NNE 03:47:55 12° NE 03:49:43 10° ENE visible
5 Apr 4.0 20:02:39 10° SSW 20:07:50 85° WNW 20:13:01 10° NNE visible
5 Apr 6.9 21:47:23 10° W 21:50:23 15° NW 21:53:23 10° NNW visible
6 Apr 5.8 04:44:14 10° N 04:48:57 36° ENE 04:53:39 10° SE visible
6 Apr 4.1 19:21:15 10° S 19:26:15 53° ESE 19:31:16 10° NNE visible
6 Apr 6.3 21:04:07 10° WSW 21:08:18 24° NW 21:12:30 10° N visible
7 Apr 6.7 04:03:02 10° N 04:07:00 22° NE 04:10:57 10° ESE visible
7 Apr 5.4 20:21:32 10° SW 20:26:23 40° WNW 20:31:14 10° N visible
8 Apr 7.1 03:22:16 10° NNE 03:24:53 14° NE 03:27:29 10° ENE visible
8 Apr 4.3 19:39:28 10° SSW 19:44:36 70° WNW 19:49:46 10° NNE visible
8 Apr 7.2 21:24:58 10° WNW 21:27:21 13° NW 21:29:43 10° NNW visible
9 Apr 5.3 04:20:54 10° N 04:25:48 43° ENE 04:30:40 10° SE visible
9 Apr 6.7 20:41:21 10° W 20:45:12 21° NW 20:49:03 10° N visible
10 Apr 6.3 03:39:37 10° N 03:43:54 26° NE 03:48:10 10° ESE visible
10 Apr 5.9 19:58:34 10° WSW 20:03:14 33° WNW 20:07:54 10° N visible
11 Apr 7.0 02:58:39 10° N 03:01:50 16° NE 03:05:00 10° E visible
11 Apr 4.0 04:39:10 10° NNW 04:44:19 88° WSW 04:49:27 10° SSE visible
11 Apr 4.8 19:16:20 10° SW 19:21:24 58° WNW 19:26:29 10° NNE visible
11 Apr 7.4 21:02:55 10° WNW 21:04:19 11° NW 21:05:43 10° NNW visible
12 Apr 7.4 02:19:21 10° NE 02:19:37 10° NE 02:19:51 10° NE visible
12 Apr 4.9 03:57:36 10° NNW 04:02:37 52° ENE 04:07:36 10° SE visible
12 Apr 7.0 20:18:42 10° W 20:22:07 18° NW 20:25:33 10° N visible
13 Apr 5.9 03:16:13 10° N 03:20:46 31° ENE 03:25:17 10° ESE visible
13 Apr 6.3 19:35:40 10° WSW 19:40:05 28° NW 19:44:31 10° N visible
